When you browse on this site, cookies collect data to enhance your experience and personalize the content and advertising you see.
Visit our Privacy Policy to learn more. By continuing to use the site, you agree to this use of cookies and data.
  • In Hungary
  • List of Countries
  • For 7 days
  • Water Temperature
  • Satellite Maps
  • Weather Map
  • News
  • Weather Widgets
  • user-avatar
    Login

    Hourly Weather Ilowiec

    Today, 20 November, Tuesday

    Time Temperature Precipitation Wind Pressure Humidity
    00:00 -3°C° 0 mm 4 mps 750 mmHg 80%
    01:00 -4°C° 0 mm 4 mps 750 mmHg 82%
    02:00 -4°C° 0 mm 3 mps 750 mmHg 85%
    03:00 -4°C° 0 mm 3 mps 750 mmHg 84%
    04:00 -4°C° 0 mm 4 mps 750 mmHg 84%
    05:00 -5°C° 0 mm 5 mps 750 mmHg 84%
    06:00 -5°C° 0 mm 5 mps 750 mmHg 83%
    07:00 -5°C° 0 mm 5 mps 750 mmHg 82%
    08:00 -5°C° 0 mm 5 mps 751 mmHg 80%
    09:00 -4°C° 0 mm 5 mps 751 mmHg 78%
    10:00 -4°C° 0 mm 5 mps 750 mmHg 75%
    11:00 -2°C° 0 mm 5 mps 750 mmHg 73%
    12:00 -2°C° 0 mm 5 mps 750 mmHg 69%
    13:00 -2°C° 0 mm 6 mps 750 mmHg 65%
    14:00 -1°C° 0 mm 5 mps 749 mmHg 66%
    15:00 -2°C° 0 mm 5 mps 749 mmHg 69%
    16:00 -2°C° 0 mm 5 mps 749 mmHg 72%
    17:00 -4°C° 0 mm 5 mps 749 mmHg 75%
    18:00 -4°C° 0 mm 5 mps 749 mmHg 76%
    19:00 -4°C° 0 mm 6 mps 749 mmHg 77%
    20:00 -4°C° 0 mm 6 mps 748 mmHg 78%
    21:00 -4°C° 0 mm 6 mps 748 mmHg 78%
    22:00 -4°C° 0 mm 6 mps 748 mmHg 78%
    23:00 -4°C° 0 mm 6 mps 748 mmHg 78%

    Tomorrow, 21 November, Wednesday

    Time Temperature Precipitation Wind Pressure Humidity
    00:00 -4°C° 0 mm 6 mps 748 mmHg 78%
    01:00 -4°C° 0 mm 6 mps 748 mmHg 78%
    02:00 -4°C° 0 mm 5 mps 748 mmHg 78%
    03:00 -4°C° 0 mm 5 mps 748 mmHg 79%
    04:00 -4°C° 0 mm 5 mps 748 mmHg 80%
    05:00 -4°C° 0 mm 5 mps 748 mmHg 81%
    06:00 -4°C° 0 mm 5 mps 748 mmHg 81%
    07:00 -4°C° 0 mm 5 mps 748 mmHg 82%
    08:00 -4°C° 0 mm 6 mps 748 mmHg 83%
    09:00 -4°C° 0 mm 6 mps 749 mmHg 80%
    10:00 -3°C° 0 mm 6 mps 749 mmHg 78%
    11:00 -3°C° 0 mm 6 mps 749 mmHg 76%
    12:00 -2°C° 0 mm 5 mps 749 mmHg 74%
    13:00 -1°C° 0 mm 5 mps 749 mmHg 72%
    14:00 -1°C° 0 mm 5 mps 749 mmHg 70%
    15:00 -2°C° 0 mm 5 mps 749 mmHg 73%
    16:00 -2°C° 0 mm 4 mps 749 mmHg 76%
    17:00 -3°C° 0 mm 4 mps 749 mmHg 78%
    18:00 -3°C° 0 mm 4 mps 750 mmHg 79%
    19:00 -3°C° 0 mm 4 mps 750 mmHg 79%
    20:00 -4°C° 0 mm 4 mps 750 mmHg 80%
    21:00 -4°C° 0 mm 4 mps 750 mmHg 80%
    22:00 -4°C° 0 mm 4 mps 750 mmHg 81%
    23:00 -4°C° 0 mm 4 mps 750 mmHg 82%

    Day after tomorrow, 22 November, Thursday

    Time Temperature Precipitation Wind Pressure Humidity
    00:00 -4°C° 0 mm 4 mps 750 mmHg 82%
    01:00 -4°C° 0 mm 3 mps 750 mmHg 82%
    02:00 -4°C° 0 mm 3 mps 750 mmHg 83%
    03:00 -5°C° 0 mm 3 mps 750 mmHg 82%
    04:00 -5°C° 0 mm 3 mps 751 mmHg 82%
    05:00 -5°C° 0 mm 3 mps 751 mmHg 82%
    06:00 -5°C° 0 mm 3 mps 751 mmHg 82%
    07:00 -5°C° 0 mm 3 mps 751 mmHg 82%
    08:00 -5°C° 0 mm 3 mps 751 mmHg 82%
    09:00 -4°C° 0 mm 3 mps 751 mmHg 76%
    10:00 -2°C° 0 mm 3 mps 751 mmHg 70%
    11:00 -1°C° 0 mm 3 mps 751 mmHg 64%
    12:00 0°C° 0 mm 3 mps 751 mmHg 61%
    13:00 0°C° 0 mm 3 mps 751 mmHg 57%
    14:00 +1°C° 0 mm 3 mps 751 mmHg 54%
    15:00 +1°C° 0 mm 2 mps 751 mmHg 59%
    16:00 -1°C° 0 mm 2 mps 751 mmHg 65%
    17:00 -2°C° 0 mm 2 mps 751 mmHg 70%
    18:00 -2°C° 0 mm 2 mps 751 mmHg 71%
    19:00 -3°C° 0 mm 2 mps 751 mmHg 73%
    20:00 -3°C° 0 mm 2 mps 751 mmHg 74%
    21:00 -3°C° 0 mm 2 mps 752 mmHg 74%
    22:00 -3°C° 0 mm 2 mps 752 mmHg 75%
    23:00 -1°C° 0 mm 1 mps 752 mmHg 75%

    23 November, Friday

    Time Temperature Precipitation Wind Pressure Humidity
    00:00 -1°C° 0 mm 1 mps 752 mmHg 75%
    01:00 -1°C° 0 mm 1 mps 752 mmHg 74%
    02:00 -1°C° 0 mm 1 mps 752 mmHg 74%
    03:00 -1°C° 0 mm 1 mps 752 mmHg 74%
    04:00 -1°C° 0 mm 1 mps 752 mmHg 74%
    05:00 -1°C° 0 mm 1 mps 752 mmHg 74%
    06:00 -1°C° 0 mm 1 mps 752 mmHg 74%
    07:00 -4°C° 0 mm 2 mps 752 mmHg 74%
    08:00 -4°C° 0 mm 2 mps 752 mmHg 74%
    09:00 -2°C° 0 mm 2 mps 753 mmHg 68%
    10:00 -1°C° 0 mm 2 mps 753 mmHg 63%
    11:00 +1°C° 0 mm 2 mps 753 mmHg 57%
    12:00 +2°C° 0 mm 2 mps 753 mmHg 55%
    13:00 +2°C° 0 mm 2 mps 753 mmHg 53%
    14:00 +3°C° 0 mm 2 mps 752 mmHg 51%
    15:00 +2°C° 0 mm 2 mps 752 mmHg 56%
    16:00 +1°C° 0 mm 2 mps 752 mmHg 61%
    17:00 -1°C° 0 mm 2 mps 752 mmHg 66%
    18:00 -2°C° 0 mm 2 mps 751 mmHg 67%
    19:00 -2°C° 0 mm 3 mps 751 mmHg 68%
    20:00 -2°C° 0 mm 3 mps 751 mmHg 69%
    21:00 -2°C° 0 mm 3 mps 751 mmHg 72%
    22:00 -2°C° 0 mm 3 mps 750 mmHg 74%
    23:00 -2°C° 0 mm 3 mps 750 mmHg 76%

    24 November, Saturday

    Time Temperature Precipitation Wind Pressure Humidity
    00:00 -2°C° 0 mm 3 mps 750 mmHg 80%
    01:00 -1°C° 0 mm 3 mps 750 mmHg 83%
    02:00 -1°C° 0 mm 3 mps 749 mmHg 86%
    03:00 -1°C° 0 mm 3 mps 749 mmHg 88%
    04:00 -1°C° 0 mm 3 mps 748 mmHg 90%
    05:00 -1°C° 0 mm 3 mps 748 mmHg 92%
    06:00 -1°C° 0 mm 3 mps 748 mmHg 92%
    07:00 -1°C° 0 mm 3 mps 747 mmHg 92%
    08:00 -1°C° 0 mm 3 mps 747 mmHg 93%
    09:00 +1°C° 0 mm 3 mps 747 mmHg 88%
    10:00 +1°C° 0 mm 4 mps 746 mmHg 84%
    11:00 +4°C° 0 mm 4 mps 746 mmHg 79%
    12:00 +4°C° 0 mm 4 mps 746 mmHg 78%
    13:00 +5°C° 0 mm 3 mps 745 mmHg 77%
    14:00 +5°C° 0 mm 3 mps 745 mmHg 76%
    15:00 +4°C° 0 mm 3 mps 744 mmHg 79%
    16:00 +3°C° 0 mm 3 mps 744 mmHg 83%
    17:00 +2°C° 0 mm 3 mps 743 mmHg 87%
    18:00 +2°C° 0.1 mm 3 mps 743 mmHg 88%
    19:00 +2°C° 0.1 mm 3 mps 743 mmHg 88%
    20:00 +2°C° 0.1 mm 3 mps 743 mmHg 89%
    21:00 +2°C° 0.2 mm 3 mps 742 mmHg 90%
    22:00 +2°C° 0.2 mm 3 mps 742 mmHg 91%
    23:00 +2°C° 0.2 mm 3 mps 742 mmHg 92%

    25 November, Sunday

    Time Temperature Precipitation Wind Pressure Humidity
    00:00 +3°C° 0.2 mm 3 mps 742 mmHg 93%
    01:00 +3°C° 0.2 mm 3 mps 741 mmHg 93%
    02:00 +3°C° 0.2 mm 3 mps 741 mmHg 93%
    03:00 +3°C° 0.1 mm 3 mps 741 mmHg 93%
    04:00 +3°C° 0.1 mm 3 mps 741 mmHg 94%
    05:00 +3°C° 0.1 mm 3 mps 740 mmHg 94%
    06:00 +3°C° 0 mm 3 mps 740 mmHg 94%
    07:00 +3°C° 0 mm 3 mps 740 mmHg 94%
    08:00 +3°C° 0 mm 3 mps 740 mmHg 94%
    09:00 +3°C° 0 mm 4 mps 740 mmHg 91%
    10:00 +4°C° 0 mm 4 mps 740 mmHg 89%
    11:00 +4°C° 0 mm 4 mps 740 mmHg 87%
    12:00 +5°C° 0 mm 4 mps 740 mmHg 84%
    13:00 +5°C° 0 mm 4 mps 740 mmHg 81%
    14:00 +6°C° 0 mm 4 mps 740 mmHg 78%
    15:00 +5°C° 0 mm 3 mps 739 mmHg 81%
    16:00 +5°C° 0 mm 3 mps 739 mmHg 84%
    17:00 +4°C° 0 mm 3 mps 739 mmHg 87%
    18:00 +4°C° 0.1 mm 3 mps 739 mmHg 88%
    19:00 +4°C° 0.1 mm 3 mps 738 mmHg 88%
    20:00 +4°C° 0.1 mm 4 mps 738 mmHg 88%
    21:00 +4°C° 0.1 mm 4 mps 738 mmHg 88%
    22:00 +4°C° 0.1 mm 4 mps 738 mmHg 88%
    23:00 +4°C° 0.1 mm 4 mps 738 mmHg 87%
    Show more